Powrót do katalogu

SL-8 DEB

AktywnyLEO
NORAD 60605·DEBRIS·🇷🇺 Russia

Wystrzelony Feb 12, 1991 z Plesetsk Cosmodrome

Loading…

Następne Przeloty (najbliższe 24 godziny)

TLE

ŚwieżeSource: Space-Track

Epoka: Sep 14, 2026, 00:40 UTC

1 60605U 91009EA  26257.02815986  .00000036  00000-0  46445-3 0  9992
2 60605  74.0516 124.4425 0173071 177.4155 182.7814 12.19948118570189

Śledź SL-8 DEB w czasie rzeczywistym z AllMySat

Download on the App Store